[[{"header":{"parameterUnit":"m.s-1","parameterCategory":1,"la1":30.2991,"la2":30.254,"lo1":-89.0895,"lo2":-89.0444,"dy":0.0017,"dx":0.0017,"nx":28,"ny":28,"refTime":"2025-08-02T09:00:00:Z","depth":0,"parameterNumber":2,"parameterNumberName":"U-component_of_WINDS"},"data":[0,0,0,0,0,0,0,0,0,0,0,0,0,0,0,0,0,0,0,0,0,0,0,0,0,0,0,0,0,0,0,0,0,0,0,0,0,0,0,0,0,0,0,0,0,0,0,0,0,0,0,0,0,0,0,0,0,0,-0.5579,-0.5578,0,-0.5488,-0.5487,-0.5486,-0.5473,-0.5473,-0.5474,-0.5475,-0.5376,-0.5373,-0.5369,0,0,0,0,0,0,0,0,0,0,0,0,0,-0.5737,-0.5734,-0.5579,-0.5578,-0.5577,-0.5488,-0.5487,-0.5485,-0.5472,-0.5474,-0.5475,-0.5476,-0.5377,-0.5373,-0.5369,0,0,0,0,0,0,0,0,0,0,0,0,0,-0.5659,-0.5733,-0.5579,-0.556,-0.5557,-0.5488,-0.5486,-0.5485,-0.5472,-0.5474,-0.5475,-0.5476,-0.5378,-0.5373,-0.5368,-0.531,0,0,-0.5353,-0.535,0,0,0,0,0,0,0,0,-0.5664,-0.5653,-0.5564,-0.5561,-0.5558,-0.5493,-0.5506,-0.5426,-0.5472,-0.5504,-0.5475,-0.5477,-0.5413,-0.5406,-0.5385,-0.5306,-0.5302,-0.5352,-0.5349,-0.5347,-0.5345,0,0,0,0,0,0,0,-0.5669,-0.5657,-0.5543,-0.5563,-0.5559,-0.5554,-0.5544,-0.5491,-0.5453,-0.5502,-0.5501,-0.549,-0.5412,-0.539,-0.5383,-0.53,-0.5352,-0.5348,-0.5344,-0.5342,-0.5167,-0.5165,0,0,0,0,0,0,-0.5679,-0.5662,-0.5546,-0.554,-0.5615,-0.555,-0.5539,-0.5512,-0.5453,-0.5446,-0.5489,-0.549,-0.5399,-0.5389,-0.5379,-0.5307,-0.5347,-0.5342,-0.5339,-0.5168,-0.5166,-0.5165,0,0,0,0,0,0,-0.5682,-0.5669,-0.5549,-0.5601,-0.5585,-0.5546,-0.5516,-0.551,-0.5488,-0.5444,-0.5436,-0.5474,-0.5399,-0.5387,-0.5328,-0.5303,-0.534,-0.5335,-0.517,-0.5168,-0.5165,-0.5162,0,0,0,0,0,0,-0.5687,-0.567,-0.5649,-0.56,-0.5582,-0.5501,-0.5514,-0.5507,-0.548,-0.548,-0.5428,-0.542,-0.5399,-0.5336,-0.5323,-0.5297,-0.5331,-0.5172,-0.5169,-0.5166,-0.5164,-0.5159,-0.5156,0,0,0,0,0,-0.5693,-0.5651,-0.5648,-0.5634,-0.5556,-0.55,-0.5489,-0.5467,-0.5478,-0.5456,-0.5427,-0.5422,-0.5308,-0.533,-0.5315,-0.5287,-0.5173,-0.517,-0.5166,-0.5166,-0.516,-0.5156,0,0,0,0,0,0,-0.5696,-0.5644,-0.564,-0.5582,-0.5546,-0.5498,-0.5469,-0.5463,-0.5421,-0.5423,-0.5395,-0.5384,-0.5326,-0.53,-0.5325,-0.5227,-0.5241,-0.5235,-0.5246,-0.524,-0.5237,-0.5243,-0.5327,0,0,0,0,0,-0.569,-0.5651,-0.5607,-0.556,-0.5542,-0.5509,-0.5483,-0.547,-0.543,-0.5414,-0.5381,-0.5341,-0.5296,-0.5267,-0.5223,-0.516,-0.5147,-0.5134,-0.513,-0.5127,-0.5121,-0.5084,-0.5077,-0.5153,-0.5153,-0.5153,0,0,-0.5677,-0.5644,-0.5621,-0.5559,-0.553,-0.5487,-0.5496,-0.5451,-0.5419,-0.5406,-0.5349,-0.5323,-0.5277,-0.5215,-0.5187,-0.5192,-0.5097,-0.5122,-0.512,-0.5116,-0.508,-0.5072,-0.5066,-0.5151,-0.5151,-0.5151,0,0,-0.5633,-0.5604,-0.5561,-0.5531,-0.5486,-0.5464,-0.5454,-0.5407,-0.539,-0.5332,-0.5322,-0.5282,-0.5206,-0.5173,-0.5146,-0.5087,-0.5081,-0.5074,-0.5052,-0.5017,-0.5011,-0.5005,-0.4983,-0.4976,-0.5068,-0.5068,-0.5068,0,-0.5622,-0.556,-0.5539,-0.5495,-0.5468,-0.5456,-0.5411,-0.5382,-0.5324,-0.5305,-0.5313,-0.5216,-0.5184,-0.5114,-0.51,-0.5079,-0.5064,-0.5079,-0.5014,-0.5008,-0.5003,-0.4981,-0.4973,-0.5068,-0.5068,-0.5068,-0.5068,0,-0.5548,-0.5505,-0.5476,-0.5422,-0.5391,-0.5346,-0.5317,-0.5288,-0.5276,-0.5253,-0.5193,-0.5154,-0.5102,-0.5085,-0.5073,-0.5012,-0.5017,-0.502,-0.5033,-0.4995,-0.4974,-0.4966,-0.5067,-0.5067,-0.5067,-0.5067,0,0,-0.5504,-0.5439,-0.5428,-0.5403,-0.5352,-0.5317,-0.5271,-0.5222,-0.5196,-0.5157,-0.5116,-0.5052,-0.5053,-0.5023,-0.5007,-0.4976,-0.493,-0.4982,-0.498,-0.4973,-0.486,-0.4858,-0.4849,-0.4926,-0.4924,-0.4923,-0.4863,0,-0.5452,-0.5372,-0.5351,-0.5282,-0.5241,-0.5229,-0.5188,-0.5152,-0.5128,-0.5088,-0.5062,-0.5016,-0.5023,-0.5004,-0.4973,-0.4943,-0.4907,-0.4947,-0.4886,-0.4884,-0.4898,-0.4838,-0.4836,-0.4781,-0.4855,-0.4854,-0.4853,0,-0.5382,-0.5342,-0.5269,-0.5222,-0.5204,-0.5169,-0.5121,-0.5083,-0.5041,-0.5026,-0.4992,-0.4978,-0.4928,-0.4945,-0.4873,-0.4901,-0.4875,-0.4856,-0.4853,-0.4846,-0.4866,-0.4828,-0.4764,-0.4755,-0.484,-0.4841,-0.4842,0,-0.5355,-0.5283,-0.523,-0.5208,-0.5153,-0.5128,-0.5103,-0.5062,-0.5033,-0.4991,-0.4971,-0.4923,-0.4896,-0.4858,-0.4831,-0.4846,-0.4762,-0.4777,-0.4746,-0.4747,-0.4728,-0.473,-0.4658,-0.4713,-0.4713,-0.4713,-0.4713,0,-0.5299,-0.5255,-0.5217,-0.5184,-0.5133,-0.5109,-0.5058,-0.5033,-0.4996,-0.4957,-0.4943,-0.4905,-0.4873,-0.4831,-0.4809,-0.4753,-0.4741,-0.4726,-0.472,-0.4727,-0.4728,-0.4708,-0.4711,-0.4711,-0.4711,-0.4712,-0.4712,0,-0.5261,-0.5234,-0.5175,-0.5127,-0.5114,-0.5079,-0.5037,-0.5003,-0.498,-0.493,-0.4916,-0.4878,-0.4828,-0.4797,-0.4733,-0.4718,-0.4656,-0.4652,-0.4671,-0.4668,-0.4639,-0.4642,-0.4551,-0.4537,-0.4602,-0.4602,-0.4601,0,-0.5227,-0.5192,-0.5141,-0.5115,-0.509,-0.5047,-0.5018,-0.4992,-0.4961,-0.491,-0.4882,-0.4831,-0.4789,-0.4708,-0.4673,-0.4624,-0.4618,-0.459,-0.4611,-0.4617,-0.4616,-0.4619,-0.4614,-0.4586,-0.4585,-0.4585,-0.4585,0,-0.5169,-0.5157,-0.5116,-0.507,-0.5036,-0.4998,-0.496,-0.4938,-0.4905,-0.4871,-0.482,-0.4788,-0.4722,-0.4671,-0.4618,-0.4591,-0.4581,-0.4579,-0.4569,-0.4574,-0.4586,-0.4578,-0.466,-0.4581,-0.4581,-0.4581,-0.4581,-0.4582,-0.5131,-0.5099,-0.5058,-0.5013,-0.4981,-0.4946,-0.4912,-0.4884,-0.4842,-0.4788,-0.4774,-0.472,-0.4676,-0.4605,-0.4576,-0.4532,-0.4537,-0.4522,-0.4519,-0.4515,-0.4514,-0.4594,-0.4523,-0.4523,-0.4523,-0.4523,-0.4523,0,-0.5071,-0.5044,-0.5003,-0.4951,-0.4914,-0.491,-0.4867,-0.4837,-0.479,-0.4751,-0.471,-0.465,-0.46,-0.4561,-0.451,-0.4482,-0.4476,-0.4469,-0.447,-0.4464,-0.4514,-0.4527,-0.4474,-0.4474,-0.4474,-0.4474,-0.4474,-0.4474,-0.5036,-0.4982,-0.4965,-0.4895,-0.4868,-0.4816,-0.4792,-0.4758,-0.4727,-0.4661,-0.462,-0.4596,-0.4556,-0.4501,-0.4455,-0.4444,-0.4425,-0.4419,-0.4408,-0.4455,-0.446,-0.4465,-0.4478,-0.4415,-0.4415,-0.4361,-0.436,-0.436]},{"header":{"parameterUnit":"m.s-1","parameterCategory":1,"la1":30.2991,"la2":30.254,"lo1":-89.0895,"lo2":-89.0444,"dy":0.0017,"dx":0.0017,"nx":28,"ny":28,"refTime":"2025-08-02T09:00:00:Z","depth":0,"parameterNumber":3,"parameterNumberName":"V-component_of_WINDS"},"data":[0,0,0,0,0,0,0,0,0,0,0,0,0,0,0,0,0,0,0,0,0,0,0,0,0,0,0,0,0,0,0,0,0,0,0,0,0,0,0,0,0,0,0,0,0,0,0,0,0,0,0,0,0,0,0,0,0,0,-0.1448,-0.1448,0,-0.1429,-0.1429,-0.1428,-0.1462,-0.1463,-0.1464,-0.1465,-0.1443,-0.1441,-0.144,0,0,0,0,0,0,0,0,0,0,0,0,0,-0.1512,-0.1511,-0.1448,-0.1448,-0.1448,-0.1429,-0.1429,-0.1428,-0.1462,-0.1463,-0.1465,-0.1466,-0.1443,-0.1441,-0.1439,0,0,0,0,0,0,0,0,0,0,0,0,0,-0.1488,-0.151,-0.1449,-0.1462,-0.1464,-0.1429,-0.1429,-0.1428,-0.1462,-0.1463,-0.1465,-0.1467,-0.1444,-0.1442,-0.1439,-0.1389,0,0,-0.1431,-0.143,0,0,0,0,0,0,0,0,-0.1489,-0.1485,-0.1461,-0.1461,-0.1463,-0.145,-0.1443,-0.1415,-0.1461,-0.1462,-0.1465,-0.1467,-0.1444,-0.1441,-0.1434,-0.1388,-0.1387,-0.1431,-0.143,-0.1429,-0.1428,0,0,0,0,0,0,0,-0.1491,-0.1486,-0.1441,-0.146,-0.1461,-0.1469,-0.1467,-0.1438,-0.1443,-0.1462,-0.1465,-0.1462,-0.1444,-0.1436,-0.1433,-0.1387,-0.1431,-0.1429,-0.1428,-0.1427,-0.1299,-0.1297,0,0,0,0,0,0,-0.1491,-0.1487,-0.1441,-0.144,-0.148,-0.1466,-0.1464,-0.1452,-0.1444,-0.1444,-0.1461,-0.1464,-0.1439,-0.1436,-0.1433,-0.1373,-0.1429,-0.1426,-0.1425,-0.13,-0.1298,-0.1296,0,0,0,0,0,0,-0.1492,-0.1487,-0.1442,-0.1464,-0.1459,-0.1463,-0.1449,-0.1451,-0.1442,-0.1443,-0.1443,-0.1451,-0.1441,-0.1436,-0.14,-0.1373,-0.1425,-0.1423,-0.1303,-0.13,-0.1297,-0.1253,0,0,0,0,0,0,-0.1494,-0.1487,-0.1469,-0.1464,-0.1458,-0.141,-0.1447,-0.1449,-0.1438,-0.1442,-0.1434,-0.1434,-0.1442,-0.1403,-0.1397,-0.137,-0.1421,-0.1305,-0.1301,-0.1298,-0.1257,-0.1249,-0.1243,0,0,0,0,0,-0.1496,-0.1457,-0.1467,-0.1462,-0.1435,-0.1408,-0.1405,-0.1415,-0.1436,-0.1417,-0.1417,-0.1434,-0.1377,-0.1399,-0.1393,-0.1364,-0.1307,-0.1302,-0.1298,-0.126,-0.1251,-0.1243,0,0,0,0,0,0,-0.1457,-0.1456,-0.1468,-0.1426,-0.1417,-0.1414,-0.1391,-0.1405,-0.1389,-0.1393,-0.1406,-0.1404,-0.1364,-0.1361,-0.1386,-0.1315,-0.1345,-0.1339,-0.1319,-0.131,-0.1302,-0.1303,-0.1419,0,0,0,0,0,-0.1444,-0.1423,-0.1423,-0.1386,-0.1381,-0.1387,-0.1375,-0.1384,-0.1375,-0.1371,-0.1368,-0.1358,-0.1337,-0.1324,-0.1305,-0.1257,-0.1255,-0.1235,-0.1227,-0.1221,-0.1216,-0.1189,-0.118,-0.1282,-0.1282,-0.1282,0,0,-0.1416,-0.1413,-0.1399,-0.1378,-0.1372,-0.1349,-0.1383,-0.1358,-0.134,-0.1367,-0.1332,-0.133,-0.1319,-0.1276,-0.1258,-0.1272,-0.1187,-0.1216,-0.1211,-0.1209,-0.1184,-0.1174,-0.1165,-0.1279,-0.128,-0.128,0,0,-0.1353,-0.1349,-0.1318,-0.1311,-0.1302,-0.1306,-0.1298,-0.1293,-0.1292,-0.1258,-0.1277,-0.1256,-0.1221,-0.1212,-0.1203,-0.1137,-0.1152,-0.113,-0.1092,-0.1066,-0.1058,-0.1051,-0.1026,-0.1017,-0.1125,-0.1125,-0.1125,0,-0.1319,-0.1286,-0.1299,-0.1272,-0.1262,-0.1286,-0.1253,-0.1246,-0.123,-0.1222,-0.124,-0.1195,-0.119,-0.1145,-0.1129,-0.1121,-0.1112,-0.1131,-0.1058,-0.1051,-0.1045,-0.1021,-0.1011,-0.1122,-0.1123,-0.1123,-0.1123,0,-0.1244,-0.1221,-0.1196,-0.1181,-0.1169,-0.1139,-0.1146,-0.1132,-0.1141,-0.1143,-0.1107,-0.1102,-0.1082,-0.1072,-0.1081,-0.1028,-0.1038,-0.1056,-0.1086,-0.1032,-0.101,-0.1001,-0.1119,-0.112,-0.112,-0.1121,0,0,-0.1156,-0.1149,-0.1139,-0.1132,-0.1124,-0.1106,-0.1076,-0.1058,-0.1044,-0.1033,-0.1008,-0.0978,-0.0995,-0.0984,-0.0993,-0.097,-0.0916,-0.0991,-0.0991,-0.0976,-0.0856,-0.0841,-0.083,-0.0927,-0.0925,-0.0924,-0.0856,0,-0.1092,-0.1043,-0.1053,-0.1004,-0.0982,-0.1004,-0.0979,-0.097,-0.0971,-0.0952,-0.0953,-0.093,-0.0955,-0.0949,-0.0928,-0.0927,-0.0892,-0.0932,-0.0902,-0.0901,-0.0903,-0.0819,-0.0803,-0.074,-0.0848,-0.0847,-0.0846,0,-0.1011,-0.0997,-0.0946,-0.094,-0.0931,-0.0908,-0.0891,-0.0873,-0.0864,-0.0866,-0.0854,-0.0867,-0.0837,-0.0868,-0.0827,-0.0854,-0.0842,-0.084,-0.0838,-0.0834,-0.0869,-0.0812,-0.072,-0.071,-0.0832,-0.0833,-0.0834,0,-0.095,-0.0918,-0.0883,-0.0877,-0.087,-0.0853,-0.0849,-0.0841,-0.0829,-0.0814,-0.0806,-0.0788,-0.0778,-0.0763,-0.077,-0.0792,-0.0726,-0.0758,-0.0726,-0.0725,-0.071,-0.071,-0.0614,-0.0704,-0.0705,-0.0705,-0.0705,0,-0.0877,-0.0844,-0.0855,-0.0834,-0.0797,-0.081,-0.0773,-0.0772,-0.0765,-0.0743,-0.0761,-0.074,-0.0751,-0.073,-0.0735,-0.0699,-0.0694,-0.0694,-0.0696,-0.0692,-0.0692,-0.0683,-0.0687,-0.0702,-0.0703,-0.0703,-0.0704,0,-0.0802,-0.0808,-0.0771,-0.0768,-0.0766,-0.0739,-0.0736,-0.0715,-0.0718,-0.0689,-0.0683,-0.0687,-0.0663,-0.0669,-0.0643,-0.0646,-0.06,-0.0608,-0.0604,-0.0605,-0.0572,-0.0574,-0.0465,-0.0451,-0.0552,-0.0551,-0.055,0,-0.0754,-0.0729,-0.0723,-0.071,-0.0705,-0.0683,-0.0671,-0.0682,-0.0668,-0.0656,-0.0636,-0.0614,-0.0597,-0.0558,-0.0558,-0.0538,-0.0544,-0.0507,-0.0541,-0.0537,-0.0542,-0.0543,-0.054,-0.05,-0.0499,-0.0498,-0.0497,0,-0.0668,-0.0672,-0.0654,-0.0637,-0.0622,-0.0609,-0.0597,-0.0585,-0.0596,-0.0579,-0.0555,-0.0542,-0.0516,-0.0493,-0.0475,-0.047,-0.0484,-0.0487,-0.0478,-0.0473,-0.047,-0.047,-0.0584,-0.0489,-0.049,-0.049,-0.0491,-0.0491,-0.0604,-0.0583,-0.0575,-0.0554,-0.0547,-0.0536,-0.0516,-0.0516,-0.0497,-0.0476,-0.0484,-0.0456,-0.0447,-0.0424,-0.0417,-0.0395,-0.0409,-0.0396,-0.0393,-0.0389,-0.0384,-0.0475,-0.0392,-0.0392,-0.0392,-0.0392,-0.0393,0,-0.0518,-0.0514,-0.0495,-0.0478,-0.0461,-0.0478,-0.0466,-0.0451,-0.0426,-0.0417,-0.04,-0.0372,-0.035,-0.0348,-0.0327,-0.031,-0.0316,-0.0304,-0.0305,-0.0303,-0.0374,-0.0383,-0.0299,-0.0299,-0.03,-0.03,-0.03,-0.03,-0.0471,-0.0436,-0.0439,-0.04,-0.0396,-0.037,-0.0361,-0.0351,-0.0343,-0.0311,-0.0293,-0.0293,-0.0286,-0.0265,-0.0245,-0.0245,-0.0236,-0.0221,-0.0223,-0.0289,-0.0298,-0.0307,-0.0316,-0.0219,-0.0219,-0.0154,-0.0154,-0.0153]}]]